This is the latest recevied weather packets stored in our database for station/object JA1RBY-13. If no packets are shown the sender has not sent any weather packets the latest 10 day(s).
| Time | Temp. | Humidity | Pressure | Rain* | Wind** | Luminosity | Snow |
|---|---|---|---|---|---|---|---|
| 1777116609 | 14.44° C | 57% | 1023.9 hPa | 0 mm | - | - | - |
| 1777115708 | 14.44° C | 57% | 1023.8 hPa | 0 mm | - | - | - |
| 1777114808 | 14.44° C | 56% | 1023.8 hPa | 0 mm | - | - | - |
| 1777113909 | 14.44° C | 55% | 1023.3 hPa | 0 mm | - | - | - |
| 1777113008 | 15° C | 54% | 1023.1 hPa | 0 mm | - | - | - |
| 1777112109 | 15° C | 53% | 1022.8 hPa | 0 mm | - | - | - |
| 1777111209 | 15.56° C | 52% | 1022.5 hPa | 0 mm | - | - | - |
| 1777110308 | 15.56° C | 49% | 1022.3 hPa | 0 mm | - | - | - |
| 1777109409 | 16.11° C | 47% | 1022.2 hPa | 0 mm | - | - | - |
| 1777108508 | 16.11° C | 46% | 1022 hPa | 0 mm | - | - | - |
| 1777107609 | 16.67° C | 44% | 1022 hPa | 0 mm | - | - | - |
| 1777106708 | 17.22° C | 42% | 1021.9 hPa | 0 mm | - | - | - |
| 1777105809 | 17.22° C | 41% | 1021.8 hPa | 0 mm | - | - | - |
| 1777104908 | 17.78° C | 39% | 1021.8 hPa | 0 mm | - | - | - |
| 1777104008 | 17.78° C | 40% | 1021.8 hPa | 0 mm | - | - | - |
| 1777103109 | 17.78° C | 39% | 1021.7 hPa | 0 mm | - | - | - |
| 1777102209 | 17.78° C | 39% | 1021.7 hPa | 0 mm | - | - | - |
| 1777101310 | 17.78° C | 39% | 1021.6 hPa | 0 mm | - | - | - |
| 1777100408 | 18.33° C | 39% | 1021.6 hPa | 0 mm | - | - | - |
| 1777099509 | 18.33° C | 39% | 1021.5 hPa | 0 mm | - | - | - |
| 1777097709 | 18.33° C | 40% | 1021.4 hPa | 0 mm | - | - | - |
| 1777096808 | 18.33° C | 40% | 1021.4 hPa | 0 mm | - | - | - |
| 1777095908 | 18.33° C | 40% | 1021.4 hPa | 0 mm | - | - | - |
| 1777094108 | 18.89° C | 39% | 1021.8 hPa | 0 mm | - | - | - |
| 1777093225 | 19.44° C | 37% | 1021.9 hPa | 0 mm | - | - | - |
* Rain latest hour (hover to see other rain measurements)
** Current wind speed in m/s (hover to see current wind gust speed)